#timestamp,LO_Frequency,Hit,StdDev 
1504753215.7,286046995.6,N,2.0
1504753235.6,286046995.8,N,2.1
1504753255.4,286046996.0,N,2.0
1504753275.2,286046995.9,N,2.0
1504753295.1,286046995.9,N,2.0
1504753296.0,286046995.9,N,2.0
1504753315.8,286046996.3,N,2.0
1504753335.7,286046993.8,Y,0.0
1504753355.5,286046996.6,P,0.4
1504753375.3,286046997.2,P,0.4
1504753395.2,286046997.0,P,0.3
1504753415.0,286046995.4,Y,0.0
1504753415.9,286046995.4,P,0.8
1504753435.8,286047001.2,N,2.4
1504753455.6,286046998.4,N,2.1
1504753475.4,286046999.4,N,2.0
1504753495.3,286046998.3,N,1.8
1504753515.1,286046997.0,N,1.7
1504753535.8,286046997.0,N,1.7
1504753555.7,286046997.8,N,1.6
1504753575.5,286046997.0,N,1.5
1504753595.4,286046999.3,N,1.5
1504753615.2,286046998.8,N,1.5
1504753635.0,286046997.3,N,1.4
1504753635.9,286046997.3,N,1.4
1504753655.8,286046995.6,Y,0.0
1504753675.6,286046999.5,P,0.8
1504753695.5,286046999.3,N,0.7
1504753715.3,286046998.5,N,0.6
1504753735.1,286046998.9,N,0.6
1504753755.9,286046998.7,N,0.5
1504753775.7,286046998.3,Y,0.0
1504753795.6,286047000.8,P,1.0
1504753815.4,286047000.6,N,0.9
1504753835.2,286047000.9,N,0.9
1504753855.1,286046998.2,N,1.1
1504753856.0,286046998.2,N,1.2
1504753875.8,286047000.6,N,1.2
1504753895.6,286047000.0,N,1.1
1504753915.5,286047000.7,N,1.1
1504753935.3,286046999.3,N,1.0
1504753955.2,286046999.5,N,1.0
1504753975.9,286046999.0,N,1.0
1504753995.7,286046999.3,N,0.9
1504754015.6,286046999.6,N,0.9
1504754035.4,286046996.8,Y,0.0
1504754055.3,286046996.8,P,1.4
1504754075.1,286046999.2,N,1.3
1504754076.0,286046999.2,N,1.1
1504754095.8,286046996.7,N,1.3
1504754115.7,286046997.3,N,1.2
1504754135.5,286046996.6,N,1.3
1504754155.3,286046997.4,N,1.2
1504754175.2,286046995.6,Y,0.0
1504754195.0,286046999.4,P,0.8
1504754195.9,286046999.4,N,0.7
1504754215.8,286046998.1,N,0.7
1504754235.6,286046996.6,Y,0.0
1504754255.4,286046998.5,P,0.1
1504754275.3,286046998.5,P,0.1
1504754295.1,286046998.7,P,0.1
1504754315.9,286047000.8,Y,0.0
1504754335.7,286047000.4,P,0.9
1504754355.5,286046998.2,N,1.0
1504754375.4,286047000.6,N,1.1
1504754395.2,286047000.9,N,1.1
1504754415.1,286046999.4,N,1.0
1504754416.0,286046999.4,N,1.0
1504754435.8,286047000.8,N,1.0
1504754455.6,286047000.6,N,0.9
1504754475.5,286047001.0,N,1.0
1504754495.3,286046998.7,N,1.0
1504754515.2,286047000.7,N,1.0
1504754535.9,286046998.2,N,1.0
1504754555.7,286046998.5,N,1.1
1504754575.6,286046998.2,N,1.1
1504754595.4,286046999.3,N,1.1
1504754615.2,286046999.0,N,1.0
1504754635.1,286047001.2,N,1.1
1504754636.0,286047001.2,N,1.1
1504754655.8,286046998.4,N,1.1
1504754675.7,286046999.3,N,1.1
1504754695.5,286046999.0,N,1.1
1504754715.3,286046999.3,N,1.1
1504754735.2,286047001.1,N,1.1
1504754755.0,286047001.2,N,1.1
1504754755.9,286047001.2,N,1.1
1504754775.8,286046998.9,N,1.1
1504754795.6,286046996.5,Y,0.0
1504754815.4,286046998.8,P,0.5
1504754835.3,286046996.9,P,1.2
1504754855.1,286046997.6,N,1.1
1504754875.9,286046997.3,N,1.1
1504754895.7,286046996.6,Y,0.0
1504754915.5,286047001.2,P,1.6
1504754935.4,286047001.1,N,1.5
1504754955.2,286047000.8,N,1.3
1504754975.0,286046998.2,N,1.4
1504754976.0,286046998.2,N,1.4
1504754995.8,286046998.5,N,1.4
1504755015.6,286046999.3,N,1.3
1504755035.5,286046998.2,N,1.3
1504755055.3,286047000.8,N,1.3
1504755075.1,286046998.5,N,1.3
1504755095.9,286046998.6,N,1.2
1504755115.7,286047000.5,N,1.2
1504755135.6,286047000.0,N,1.2
1504755155.4,286046999.9,N,1.2
1504755175.2,286047001.0,N,1.2
1504755195.1,286046999.9,N,1.2
1504755196.0,286046999.9,N,1.1
1504755215.8,286047000.8,N,1.1
1504755235.7,286047002.8,N,1.3
1504755255.5,286047000.9,N,1.3
1504755275.3,286047000.2,N,1.3
1504755295.2,286047001.0,N,1.2
1504755315.0,286047000.0,N,1.2
1504755315.9,286047000.0,N,1.2
1504755335.8,286047002.8,N,1.3
1504755355.6,286047000.1,N,1.3
1504755375.4,286046999.9,N,1.2
1504755395.3,286047002.4,N,1.3
1504755415.1,286047001.6,N,1.3
1504755435.9,286047002.6,N,1.3
1504755455.7,286047004.0,Y,0.0
1504755475.5,286047001.6,P,0.6
1504755495.4,286047003.9,P,1.5
1504755515.2,286047001.3,N,1.3
1504755535.1,286047004.0,Y,0.0
1504755536.0,286047004.0,P,1.1
1504755555.8,286047000.1,N,1.6
1504755575.6,286047000.0,N,1.6
1504755595.5,286046999.9,N,1.6
1504755615.3,286047000.7,N,1.5
1504755635.2,286046998.5,N,1.6
1504755655.9,286047000.8,N,1.5
1504755675.7,286047000.5,N,1.4
1504755695.6,286046999.9,N,1.4
1504755715.4,286047000.6,N,1.3
1504755735.2,286047001.1,N,1.3
1504755755.1,286047000.5,N,1.2
1504755756.0,286047000.5,N,1.2
1504755775.8,286047000.1,N,1.1
1504755795.7,286047000.5,N,1.1
1504755815.5,286047002.3,N,1.1
1504755835.3,286047002.4,N,1.2
1504755855.2,286047002.5,N,1.2
1504755875.0,286047000.1,N,1.2
1504755875.9,286047000.1,N,1.2
1504755895.8,286047000.1,N,1.2
1504755915.6,286046999.8,N,1.1
1504755935.4,286047001.7,N,1.1
1504755955.3,286047001.6,N,1.1
1504755975.1,286047001.7,N,1.1
1504755995.8,286047002.5,N,1.1
1504756015.7,286047001.3,N,1.1
1504756035.5,286046999.7,N,1.1
1504756055.4,286047002.5,N,1.1
1504756075.2,286047001.8,N,1.1
1504756095.0,286047004.2,Y,0.0
1504756095.9,286047004.2,P,1.6
1504756115.8,286047002.0,N,1.4
1504756135.6,286047001.6,N,1.2
1504756155.5,286047004.0,Y,0.0
1504756175.3,286047000.3,P,0.9
1504756195.1,286047001.2,N,0.8
1504756215.9,286047000.4,N,0.8
1504756235.7,286047001.0,N,0.7
1504756255.5,286047000.1,N,0.7
1504756275.4,286047000.3,N,0.7
1504756295.2,286047000.7,N,0.6
1504756315.1,286046998.4,N,1.0
1504756316.0,286046998.4,N,1.1
1504756335.8,286047001.2,N,1.1
1504756355.7,286047001.2,N,1.1
1504756375.5,286047001.1,N,1.0
1504756395.3,286047000.6,N,1.0
1504756415.2,286046999.7,N,1.0
1504756435.0,286047002.3,N,1.1
1504756435.9,286047002.3,N,1.1
1504756455.7,286046999.8,N,1.1
1504756475.6,286047002.8,N,1.2
1504756495.4,286047000.2,N,1.1
1504756515.3,286046999.8,N,1.1
1504756535.1,286047000.0,N,1.1
1504756555.8,286046999.8,N,1.1
1504756575.7,286047000.6,N,1.1
1504756595.5,286047002.8,N,1.1
1504756615.4,286047000.4,N,1.1
1504756635.2,286047001.3,N,1.1
1504756655.0,286047001.7,N,1.1
1504756655.9,286047001.7,N,1.1
1504756675.8,286046999.8,N,1.1
1504756695.6,286046999.7,N,1.1
1504756715.5,286047002.5,N,1.1
1504756735.3,286047002.3,N,1.2
1504756755.2,286047000.1,N,1.2
1504756775.9,286047000.0,N,1.2
1504756795.7,286047001.5,N,1.2
